• In Germany
  • List of Countries
  • For 7 days
  • Water Temperature
  • Satellite Maps
  • Weather Map
  • Weather Widgets
  • user-avatar
    Login

    Hourly Weather Kalgoorlie

    Today, 20 October, Friday

    Time Temperature Precipitation Wind Pressure Humidity
    00:00 +16°C° 0 mm 9 mps 738 mmHg 44%
    01:00 +15°C° 0 mm 8 mps 738 mmHg 48%
    02:00 +13°C° 0 mm 8 mps 738 mmHg 53%
    03:00 +12°C° 0 mm 8 mps 738 mmHg 56%
    04:00 +12°C° 0 mm 7 mps 738 mmHg 60%
    05:00 +11°C° 0 mm 7 mps 738 mmHg 64%
    06:00 +12°C° 0 mm 7 mps 738 mmHg 59%
    07:00 +13°C° 0 mm 8 mps 739 mmHg 55%
    08:00 +16°C° 0 mm 8 mps 739 mmHg 50%
    09:00 +18°C° 0 mm 8 mps 739 mmHg 42%
    10:00 +21°C° 0 mm 8 mps 738 mmHg 34%
    11:00 +23°C° 0 mm 8 mps 738 mmHg 26%
    12:00 +26°C° 0 mm 8 mps 737 mmHg 22%
    13:00 +27°C° 0 mm 8 mps 737 mmHg 19%
    14:00 +28°C° 0 mm 8 mps 736 mmHg 15%
    15:00 +28°C° 0 mm 7 mps 736 mmHg 16%
    16:00 +28°C° 0 mm 7 mps 736 mmHg 16%
    17:00 +28°C° 0 mm 7 mps 736 mmHg 16%
    18:00 +26°C° 0 mm 6 mps 736 mmHg 18%
    19:00 +24°C° 0 mm 6 mps 737 mmHg 20%
    20:00 +23°C° 0 mm 5 mps 736 mmHg 20%
    21:00 +22°C° 0 mm 6 mps 737 mmHg 23%
    22:00 +21°C° 0 mm 7 mps 737 mmHg 26%
    23:00 +21°C° 0 mm 8 mps 737 mmHg 29%

    Tomorrow, 21 October, Saturday

    Time Temperature Precipitation Wind Pressure Humidity
    00:00 +20°C° 0 mm 8 mps 737 mmHg 36%
    01:00 +18°C° 0 mm 8 mps 737 mmHg 42%
    02:00 +17°C° 0 mm 8 mps 736 mmHg 49%
    03:00 +16°C° 0 mm 8 mps 736 mmHg 52%
    04:00 +15°C° 0 mm 8 mps 736 mmHg 55%
    05:00 +15°C° 0 mm 7 mps 736 mmHg 59%
    06:00 +16°C° 0 mm 8 mps 736 mmHg 55%
    07:00 +17°C° 0 mm 8 mps 736 mmHg 50%
    08:00 +20°C° 0 mm 8 mps 737 mmHg 46%
    09:00 +22°C° 0 mm 8 mps 736 mmHg 40%
    10:00 +26°C° 0 mm 8 mps 736 mmHg 33%
    11:00 +29°C° 0 mm 8 mps 736 mmHg 26%
    12:00 +31°C° 0 mm 8 mps 735 mmHg 24%
    13:00 +32°C° 0 mm 8 mps 734 mmHg 22%
    14:00 +33°C° 0 mm 8 mps 733 mmHg 20%
    15:00 +33°C° 0 mm 7 mps 733 mmHg 20%
    16:00 +33°C° 0 mm 6 mps 733 mmHg 21%
    17:00 +32°C° 0 mm 5 mps 733 mmHg 21%
    18:00 +30°C° 0 mm 6 mps 733 mmHg 23%
    19:00 +29°C° 0 mm 7 mps 732 mmHg 24%
    20:00 +28°C° 0 mm 9 mps 732 mmHg 26%
    21:00 +27°C° 0 mm 8 mps 732 mmHg 27%
    22:00 +27°C° 0 mm 8 mps 733 mmHg 28%
    23:00 +26°C° 0 mm 8 mps 733 mmHg 29%

    Day after tomorrow, 22 October, Sunday

    Time Temperature Precipitation Wind Pressure Humidity
    00:00 +24°C° 0 mm 8 mps 732 mmHg 31%
    01:00 +23°C° 0 mm 8 mps 732 mmHg 32%
    02:00 +23°C° 0 mm 8 mps 731 mmHg 33%
    03:00 +22°C° 0 mm 8 mps 731 mmHg 34%
    04:00 +22°C° 0 mm 8 mps 731 mmHg 35%
    05:00 +21°C° 0 mm 8 mps 731 mmHg 36%
    06:00 +21°C° 0.6 mm 8 mps 731 mmHg 39%
    07:00 +21°C° 0.6 mm 9 mps 730 mmHg 42%
    08:00 +21°C° 0.6 mm 9 mps 730 mmHg 45%
    09:00 +24°C° 0.2 mm 10 mps 730 mmHg 38%
    10:00 +28°C° 0.2 mm 11 mps 730 mmHg 31%
    11:00 +32°C° 0.2 mm 13 mps 729 mmHg 24%
    12:00 +33°C° 0 mm 12 mps 728 mmHg 24%
    13:00 +34°C° 0 mm 11 mps 727 mmHg 24%
    14:00 +36°C° 0 mm 10 mps 726 mmHg 24%
    15:00 +34°C° 1.4 mm 8 mps 726 mmHg 30%
    16:00 +33°C° 1.4 mm 6 mps 725 mmHg 36%
    17:00 +32°C° 1.4 mm 4 mps 725 mmHg 42%
    18:00 +30°C° 0.1 mm 4 mps 725 mmHg 42%
    19:00 +29°C° 0.1 mm 5 mps 725 mmHg 43%
    20:00 +28°C° 0.1 mm 5 mps 725 mmHg 44%
    21:00 +27°C° 0 mm 4 mps 725 mmHg 43%
    22:00 +26°C° 0 mm 4 mps 725 mmHg 42%
    23:00 +25°C° 0 mm 3 mps 725 mmHg 41%

    23 October, Monday

    Time Temperature Precipitation Wind Pressure Humidity
    00:00 +25°C° 0 mm 3 mps 725 mmHg 43%
    01:00 +24°C° 0 mm 3 mps 725 mmHg 45%
    02:00 +22°C° 0 mm 4 mps 724 mmHg 46%
    03:00 +21°C° 0 mm 4 mps 724 mmHg 52%
    04:00 +20°C° 0 mm 4 mps 725 mmHg 58%
    05:00 +20°C° 0 mm 4 mps 725 mmHg 64%
    06:00 +21°C° 0 mm 4 mps 725 mmHg 58%
    07:00 +23°C° 0 mm 5 mps 726 mmHg 53%
    08:00 +26°C° 0 mm 6 mps 727 mmHg 48%
    09:00 +27°C° 0 mm 5 mps 727 mmHg 41%
    10:00 +28°C° 0 mm 5 mps 727 mmHg 35%
    11:00 +30°C° 0 mm 5 mps 727 mmHg 28%
    12:00 +32°C° 0 mm 5 mps 726 mmHg 25%
    13:00 +33°C° 0 mm 5 mps 726 mmHg 23%
    14:00 +33°C° 0 mm 5 mps 725 mmHg 20%
    15:00 +33°C° 0 mm 5 mps 725 mmHg 21%
    16:00 +33°C° 0 mm 5 mps 726 mmHg 21%
    17:00 +33°C° 0 mm 5 mps 726 mmHg 21%
    18:00 +32°C° 0 mm 5 mps 726 mmHg 25%
    19:00 +29°C° 0 mm 5 mps 727 mmHg 29%
    20:00 +28°C° 0 mm 5 mps 727 mmHg 33%
    21:00 +26°C° 0 mm 6 mps 727 mmHg 39%
    22:00 +24°C° 0 mm 6 mps 728 mmHg 45%
    23:00 +23°C° 0 mm 7 mps 728 mmHg 51%

    24 October, Tuesday

    Time Temperature Precipitation Wind Pressure Humidity
    00:00 +22°C° 0 mm 6 mps 728 mmHg 55%
    01:00 +21°C° 0 mm 6 mps 728 mmHg 59%
    02:00 +19°C° 0 mm 5 mps 728 mmHg 64%
    03:00 +19°C° 0 mm 5 mps 728 mmHg 66%
    04:00 +18°C° 0 mm 4 mps 728 mmHg 69%
    05:00 +18°C° 0 mm 4 mps 729 mmHg 72%
    06:00 +18°C° 0 mm 4 mps 729 mmHg 69%
    07:00 +19°C° 0 mm 4 mps 730 mmHg 65%
    08:00 +20°C° 0 mm 4 mps 730 mmHg 62%
    09:00 +22°C° 0 mm 3 mps 730 mmHg 56%
    10:00 +25°C° 0 mm 2 mps 730 mmHg 50%
    11:00 +26°C° 0 mm 1 mps 730 mmHg 44%
    12:00 +27°C° 0 mm 1 mps 729 mmHg 41%
    13:00 +28°C° 0 mm 1 mps 728 mmHg 37%
    14:00 +29°C° 0 mm 1 mps 728 mmHg 34%
    15:00 +29°C° 0 mm 2 mps 728 mmHg 33%
    16:00 +29°C° 0 mm 2 mps 728 mmHg 33%
    17:00 +29°C° 0 mm 3 mps 727 mmHg 33%
    18:00 +28°C° 0 mm 3 mps 728 mmHg 36%
    19:00 +27°C° 0 mm 4 mps 728 mmHg 38%
    20:00 +27°C° 0 mm 5 mps 729 mmHg 41%
    21:00 +26°C° 0 mm 5 mps 729 mmHg 42%
    22:00 +25°C° 0 mm 5 mps 729 mmHg 42%
    23:00 +23°C° 0 mm 5 mps 729 mmHg 43%

    25 October, Wednesday

    Time Temperature Precipitation Wind Pressure Humidity
    00:00 +22°C° 0 mm 5 mps 729 mmHg 47%
    01:00 +21°C° 0 mm 5 mps 729 mmHg 51%
    02:00 +20°C° 0 mm 4 mps 729 mmHg 55%
    03:00 +19°C° 0 mm 4 mps 730 mmHg 60%
    04:00 +19°C° 0 mm 3 mps 730 mmHg 64%
    05:00 +18°C° 0 mm 3 mps 730 mmHg 68%
    06:00 +19°C° 0 mm 2 mps 731 mmHg 63%
    07:00 +20°C° 0 mm 2 mps 731 mmHg 58%
    08:00 +23°C° 0 mm 1 mps 732 mmHg 53%
    09:00 +24°C° 0 mm 1 mps 731 mmHg 44%
    10:00 +26°C° 0 mm 1 mps 731 mmHg 36%
    11:00 +28°C° 0 mm 1 mps 731 mmHg 28%
    12:00 +29°C° 0 mm 2 mps 730 mmHg 24%
    13:00 +30°C° 0 mm 2 mps 730 mmHg 21%
    14:00 +31°C° 0 mm 3 mps 729 mmHg 18%
    15:00 +31°C° 0 mm 3 mps 729 mmHg 17%
    16:00 +31°C° 0 mm 3 mps 729 mmHg 17%
    17:00 +32°C° 0 mm 4 mps 729 mmHg 16%
    18:00 +30°C° 0 mm 4 mps 729 mmHg 17%
    19:00 +29°C° 0 mm 4 mps 730 mmHg 18%
    20:00 +27°C° 0 mm 4 mps 730 mmHg 19%
    21:00 +26°C° 0 mm 5 mps 730 mmHg 23%
    22:00 +25°C° 0 mm 5 mps 730 mmHg 26%
    23:00 +23°C° 0 mm 5 mps 730 mmHg 30%
    Show more